Flag for Germany Weather past 2 weeks in Schwabach, Bavaria, Germany

Now
46 °F

Passing clouds.


Feels Like: 45 °F
Forecast: 35 / 55 °F
Wind: 3 mph from East

Location: Nuernberg

Current Time: Oct 25, 2014 at 9:30:32 PM

Latest Report: Oct 25, 2014 at 8:50 PM


Visibility: N/A

Pressure: 30.21 "Hg

Humidity: 93%

Dew point: 45 °F

Location of SchwabachLocation

Historic Weather in Schwabach — Graph

°F

Schwabach temperature yesterday

Maximum temperature yesterday: 57 °F (at 4:20 PM)
Minimum temperature yesterday: 39 °F (at 11:50 PM)
Average temperature yesterday: 48 °F

Past Weeks' High & Low Weather Summary

 TemperatureHumidityPressure
High72 °F (Oct 19, 2:50 PM)100% (Oct 10, 9:20 PM)30.24 "Hg (Oct 10, 9:20 PM)
Low37 °F (Oct 25, 3:20 AM)56% (Oct 14, 4:20 PM)29.56 "Hg (Oct 21, 8:20 PM)
Average54 °F90%29.98 "Hg
* Reported Oct 10 8:20 PM — Oct 25 8:20 PM, Schwabach, Weather by CustomWeather, © 2014

Note: Actual official high and low records may vary slightly from our data, if they occured in-between our weather recording intervals... More about our weather records

Advertising

Schwabach weather history for previous 24 hours

 ConditionsComfort  
Time TempWeatherWind HumidityBarometerVisibility
8:20 PM
Oct 25
46 °FPassing clouds.6 mph93%30.21 "HgN/A
7:50 PM46 °FPassing clouds.5 mph93%30.21 "HgN/A
7:20 PM46 °FMostly cloudy.6 mph93%30.21 "HgN/A
6:50 PM46 °FMostly cloudy.5 mph93%30.18 "HgN/A
6:20 PM46 °FMostly cloudy.5 mph93%30.18 "HgN/A
5:50 PM46 °FMostly cloudy.6 mph93%30.18 "HgN/A
5:20 PM48 °FMostly cloudy.6 mph87%30.18 "HgN/A
4:50 PM48 °FMostly cloudy.8 mph87%30.18 "HgN/A
4:20 PM48 °FMostly cloudy.6 mph94%30.15 "HgN/A
3:50 PM48 °FLight rain. Mostly cloudy.6 mph94%30.15 "HgN/A
3:20 PM48 °FLight rain. Broken clouds.5 mph94%30.15 "HgN/A
2:50 PM48 °FLight rain. Broken clouds.7 mph87%30.15 "HgN/A
2:20 PM48 °FLight rain. Broken clouds.5 mph82%30.15 "HgN/A
1:50 PM48 °FBroken clouds.6 mph87%30.15 "HgN/A
1:20 PM48 °FBroken clouds.5 mph82%30.15 "HgN/A
12:50 PM46 °FBroken clouds.7 mph87%30.15 "HgN/A
12:20 PM46 °FBroken clouds.7 mph87%30.15 "HgN/A
11:50 AM46 °FPartly sunny.7 mph87%30.15 "HgN/A
11:20 AM46 °FPartly sunny.7 mph87%30.15 "HgN/A
10:50 AM46 °FBroken clouds.7 mph93%30.15 "Hg6 mi
10:20 AM45 °FPartly sunny.6 mph93%30.12 "Hg5 mi
9:50 AM43 °FPartly sunny.6 mph100%30.12 "Hg4 mi
9:20 AM43 °FPartly sunny.5 mph100%30.12 "Hg4 mi
8:50 AM43 °FPassing clouds.6 mph100%30.12 "Hg4 mi
8:20 AM43 °FPassing clouds.3 mph93%30.12 "Hg4 mi
7:50 AM41 °FPassing clouds.2 mph100%30.12 "Hg4 mi
7:20 AM41 °FPartly cloudy.6 mph100%30.12 "Hg4 mi
6:50 AM41 °FFog.8 mph100%30.12 "Hg3 mi
6:20 AM41 °FFog.8 mph100%30.12 "Hg2 mi
5:50 AM39 °FFog.7 mph100%30.12 "Hg2 mi
5:20 AM39 °FFog.6 mph100%30.12 "Hg2 mi
4:50 AM39 °FFog.7 mph100%30.12 "Hg2 mi
4:20 AM39 °FFog.6 mph100%30.12 "Hg2 mi
3:50 AM37 °FFog.7 mph100%30.12 "Hg2 mi
3:20 AM37 °FFog.6 mph100%30.12 "Hg3 mi
2:50 AM39 °FFog.5 mph100%30.12 "Hg4 mi
2:20 AM39 °FFog.5 mph100%30.12 "Hg4 mi
1:50 AM39 °FFog.6 mph100%30.12 "Hg4 mi
1:20 AM39 °FFog.5 mph100%30.15 "Hg5 mi
12:50 AM39 °FFog.5 mph100%30.15 "Hg5 mi
12:20 AM39 °FFog.6 mph100%30.15 "Hg6 mi
11:50 PM
Oct 24
39 °FFog.6 mph100%30.15 "Hg6 mi
11:20 PM41 °FFog.2 mph100%30.15 "HgN/A
10:50 PM43 °FFog.5 mph93%30.15 "HgN/A
10:20 PM43 °FFog.2 mph93%30.15 "HgN/A
9:50 PM43 °FFog.6 mph93%30.15 "HgN/A
9:20 PM45 °FFog.3 mph93%30.15 "HgN/A
Weather by CustomWeather, © 2014

See weather overviewHow to use our weather pages